This demonstration page uses our WeatherBlox Daily Observations layout. Learn more.

Left ArrowRight Arrow

Hourly Observations for September 17, 2015

Temp ( °F °C ) Dew Point ( °F °C ) Humidity (%) Winds ( mph kmh ) Pressure ( in mb ) Visibility ( mi km ) Precip ( " mm )
12:53 am 00:53 Clear 56 13.3 55 12.8 97 97 Calm 30.2 1023 9 14.48406 0 0
1:53 am 01:53 Clear 55 12.8 54 12.2 96 96 Calm 30.19 1023 10 16.0934 0 0
2:53 am 02:53 Clear 54 12.2 53 11.7 97 97 Calm 30.19 1022 8 12.87472 0 0
3:53 am 03:53 Clear 53 11.7 52 11.1 96 96 Calm 30.19 1022 9 14.48406 0 0
4:53 am 04:53 Mostly Clear 52 11.1 51 10.6 97 97 Calm 30.19 1022 10 16.0934 0 0
5:53 am 05:53 Mostly Clear 51 10.6 50 10 96 96 Calm 30.19 1023 7 11.26538 0 0
6:00 am 06:00 Partly Cloudy with Mist and Fog 51 10.6 50 10 96 96 Calm 30.21 1023 1.5 2.41401 0 0
6:06 am 06:06 Mostly Cloudy with Mist and Fog 51 10.6 50 10 96 96 Calm 30.21 1023 0.75 1.207005 0 0
6:28 am 06:28 Mostly Cloudy with Mist and Fog 51 10.6 50 10 96 96 Calm 30.21 1023 2 3.21868 0 0
6:38 am 06:38 Partly Cloudy with Mist and Fog 50 10 50 10 100 100 Calm 30.21 1023 6 9.65604 0 0
6:53 am 06:53 Clear 50 10 49 9.4 96 96 Calm 30.2 1023 7 11.26538 0 0
6:58 am 06:58 Mostly Clear with Mist and Fog 50 10 49 9.4 96 96 Calm 30.21 1023 2.5 4.02335 0 0
7:01 am 07:01 Mostly Cloudy with Mist and Fog 50 10 49 9.4 96 96 Calm 30.21 1023 1 1.60934 0 0
7:08 am 07:08 Mostly Cloudy with Fog 50 10 49 9.4 96 96 Calm 30.21 1023 0.5 0.80467 0 0
7:12 am 07:12 Mostly Clear with Mist and Fog 50 10 49 9.4 96 96 Calm 30.21 1023 1.25 2.011675 0 0
7:15 am 07:15 Mostly Clear with Mist and Fog 50 10 49 9.4 96 96 Calm 30.21 1023 3 4.82802 0 0
7:28 am 07:28 Mostly Cloudy with Mist and Fog 50 10 48 8.9 93 93 Calm 30.21 1023 2.5 4.02335 0 0
7:30 am 07:30 Mostly Cloudy with Mist and Fog 50 10 49 9.4 96 96 Calm 30.21 1023 0.75 1.207005 0 0
7:50 am 07:50 Mostly Cloudy with Mist and Fog 50 10 50 10 100 100 Calm 30.21 1023 1.75 2.816345 0 0
7:53 am 07:53 Mostly Cloudy with Mist and Fog 51 10.6 50 10 96 96 Calm 30.21 1023 2 3.21868 0 0
8:01 am 08:01 Partly Cloudy with Mist and Fog 52 11.1 51 10.6 97 97 Calm 30.21 1023 5 8.0467 0 0
8:53 am 08:53 Sunny 61 16.1 57 13.9 87 87 Calm 30.22 1023 8 12.87472 0 0
9:53 am 09:53 Sunny 68 20 61 16.1 78 78 Calm 30.21 1023 9 14.48406 0 0
10:53 am 10:53 Sunny 74 23.3 58 14.4 57 57 Calm 30.2 1023 10 16.0934 0 0
11:53 am 11:53 Sunny 78 25.6 58 14.4 50 50 Calm 30.17 1022 10 16.0934 0 0
12:53 pm 12:53 Partly Cloudy 80 26.7 56 13.3 44 44 VRB 5 7 30.15 1021 10 16.0934 0 0
1:53 pm 13:53 Mostly Sunny 80 26.7 56 13.3 44 44 Calm 30.13 1020 10 16.0934 0 0
2:53 pm 14:53 Mostly Sunny 82 27.8 56 13.3 41 41 SW 8 13 30.1 1019 10 16.0934 0 0
3:53 pm 15:53 Sunny 83 28.3 56 13.3 40 40 undefined N/A 30.08 1019 10 16.0934 0 0
4:53 pm 16:53 Sunny 83 28.3 56 13.3 40 40 VRB 7 11 30.06 1018 10 16.0934 0 0
5:53 pm 17:53 Sunny 82 27.8 56 13.3 41 41 VRB 3 6 30.05 1018 10 16.0934 0 0
6:53 pm 18:53 Sunny 79 26.1 56 13.3 45 45 WSW 5 7 30.04 1017 10 16.0934 0 0
7:53 pm 19:53 Clear 66 18.9 58 14.4 75 75 Calm 30.04 1017 10 16.0934 0 0
8:53 pm 20:53 Clear 61 16.1 57 13.9 87 87 Calm 30.04 1017 10 16.0934 0 0
9:53 pm 21:53 Clear 59 15 57 13.9 93 93 Calm 30.05 1018 10 16.0934 0 0
10:53 pm 22:53 Clear 58 14.4 55 12.8 90 90 Calm 30.04 1017 10 16.0934 0 0
11:53 pm 23:53 Clear 56 13.3 54 12.2 93 93 Calm 30.02 1017 10 16.0934 0 0

Powered by AerisWeather